Regional Weather Roundup
Issued by NWS

Home | Current Version | Previous Version | Text Only | Print | Product List | Glossary Off
Versions: 1 2 3 4 5 6 7 8 9 10 11 12 13 14 15 16 17 18 19 20 21 22 23 24 25 26 27 28 29 30 31 32 33 34 35 36 37 38 39 40 41 42 43 44 45 46 47 48 49 50

000
ASUS43 KMKX 012110
RWRWI

WISCONSIN REGIONAL WEATHER ROUNDUP
NATIONAL WEATHER SERVICE MILWAUKEE/SULLIVAN WI
300 PM CST SUN FEB 01 2015

NOTE: "FAIR" INDICATES FEW OR NO CLOUDS BELOW 12,000 FEET WITH NO
SIGNIFICANT WEATHER AND/OR OBSTRUCTIONS TO VISIBILITY.

WIZ001-002-006>008-014>016-023>028-012200-
NORTHWEST WISCONSIN

CITY           SKY/WX    TMP DP  RH WIND       PRES   REMARKS
SUPERIOR ARPT  MOSUNNY   11  -6  47 NE8       30.33S WCI  -1
ASHLAND        CLOUDY    10   1  67 N16       30.29F WCI  -7
HAYWARD        PTSUNNY   11   1  64 NE15      30.22S WCI  -5
SIREN          MOSUNNY   15   1  53 NE10G22   30.24F WCI   2
CUMBERLAND     PTSUNNY   14   1  57 N17G25    30.18S WCI  -3
RICE LAKE      PTSUNNY   14   4  63 N20       30.19S WCI  -3
CHETEK         PTSUNNY   16   2  54 N13G20    30.17S WCI   2
LADYSMITH      CLOUDY    16   1  53 N17       30.16F WCI   0
EAU CLAIRE     CLOUDY    15   0  51 NE15G21   30.15F WCI   0
MENOMONIE      CLOUDY    17   1  49 N17       30.16F WCI   2
NEW RICHMOND   PTSUNNY   15   4  60 N15G24    30.19S WCI   0
OSCEOLA        PTSUNNY   16   3  55 N14       30.25S WCI   2
$$

WIZ003>005-009-010-017-018-012200-
NORTH CENTRAL WISCONSIN

CITY           SKY/WX    TMP DP  RH WIND       PRES   REMARKS
MANITOWISH WTR CLOUDY     9  -2  60 NE9       30.14F WCI  -4
ARBOR VITAE    CLOUDY    11   1  62 N9        30.13S WCI  -1
WOODRUFF       CLOUDY    11   1  62 N9        30.13S WCI  -1
RHINELANDER    CLOUDY    10  -2  58 NE12G20   30.11F WCI  -5
EAGLE RIVER    CLOUDY    10  -2  58 N16       30.11F WCI  -7
LAND O LAKES   CLOUDY    10   0  64 NE10G17   30.14F WCI  -4
PHILLIPS       MOSUNNY   11  -1  57 NE15G22   30.13F WCI  -5
TOMAHAWK       CLOUDY    11  -1  57 N8G17     30.12F WCI   0
MEDFORD        CLOUDY    11   0  60 N16       30.08F WCI  -5
MERRILL        CLOUDY    13   0  56 NE18      30.10S WCI  -4
$$

WIZ029-030-035-036-043>047-012200-
CENTRAL WISCONSIN

CITY           SKY/WX    TMP DP  RH WIND       PRES   REMARKS
WAUSAU         CLOUDY    13   1  59 NE9G18    30.08F WCI   1
MOSINEE        MOSUNNY   12   1  62 NE15G29   30.09F WCI  -4
MARSHFIELD     CLOUDY    14   2  58 NE15G22   30.08S WCI  -1
STEVENS POINT  CLOUDY    10  -1  60 NE17      30.08F WCI  -7
WAUPACA        CLOUDY    13  -3  49 N8G18     30.10S WCI   2
WAUTOMA        LGT SNOW  10   1  67 NE16G30   30.08R WCI  -7
WISC RAPIDS    CLOUDY    13  -1  54 NE13      30.09F WCI  -2
CAMP DOUGLAS   LGT SNOW  12   9  85 N12G21    30.07S BLWGSNOWWCI  -2
$$

WIZ011>013-019>022-031-037>040-048>050-012200-
NORTHEAST WISCONSIN

CITY           SKY/WX    TMP DP  RH WIND       PRES   REMARKS
ANTIGO         CLOUDY    10   2  68 NE17      30.08S WCI  -8
SHAWANO        CLOUDY    13   0  55 NE14G22   30.14S WCI  -2
OCONTO         CLOUDY     9  -2  61 NE14G22   30.16F WCI  -8
STURGEON BAY   CLOUDY     7  -2  66 N14G23    30.14F WCI -10
GREEN BAY      LGT SNOW   9   1  70 NE28G39   30.12S WCI -13
MANITOWOC      SNOW      18  14  86 NE18G30   30.04F VSB 1/2 WCI   2
APPLETON       LGT SNOW   9   1  72 NE24G36   30.07F WCI -12
CLINTONVILLE   CLOUDY    12  -4  48 NE15G25   30.11F WCI  -4
OSHKOSH        SNOW       9   4  80 N26G37    30.05S VSB 1/2 WCI -13
$$

WIZ032>034-041-042-053>061-012200-
SOUTHWEST WISCONSIN

CITY           SKY/WX    TMP DP  RH WIND       PRES   REMARKS
LA CROSSE      LGT SNOW  16   7  67 N16       30.10R WCI   1
SPARTA         LGT SNOW  15   8  74 N15       30.09S WCI  -1
VIROQUA        CLOUDY    13   9  82 N20G25    29.99F WCI  -5
BOSCOBEL       LGT SNOW  16   9  74 NE15G29   30.00S WCI   1
PRAIRIE DU CHI MIX PCPN  17  10  72 N9        30.00R WCI   6
PLATTEVILLE    CLOUDY    15  12  88 N24G32    29.90R VSB 3/4 WCI  -3
$$

WIZ056-057-062-063-064-067-068-012200-
SOUTH CENTRAL WISCONSIN

CITY           SKY/WX    TMP DP  RH WIND       PRES   REMARKS
REEDSBURG      LGT SNOW  12   7  79 NE18      30.01S WCI  -5
BARABOO/DELLS  LGT SNOW  11   7  81 NE20G28   30.00F WCI  -7
LONE ROCK      LGT SNOW  15   8  73 N15G23    29.99S VSB 1   WCI   0
MINERAL POINT  LGT SNOW  18  10  73 NE20G37   29.89R VSB 3/4 WCI   1
MADISON        SNOW      12   8  84 NE26G38   29.95R VSB 1/4 WCI  -8
MIDDLETON      CLOUDY    15  10  83 NE25G37   29.95S VSB 1/4 WCI  -5
WATERTOWN      SNOW      12  10  88 N15G29    29.93S VSB 1/2 WCI  -4
MONROE         SNOW      14  12  92 N26G41    29.84S VSB 1/2 WCI  -6
JANESVILLE     LGT SNOW  23  18  80 NE22G28   29.85F VSB 1   WCI   8
$$

WIZ051-052-058>065-066-070>072-012200-
SOUTHEAST WISCONSIN

CITY           SKY/WX    TMP DP  RH WIND       PRES   REMARKS
MILWAUKEE      SNOW      22  17  81 NE28G39   29.90F VSB 1/4 WCI   4
WAUKESHA       LGT SNOW  18  16  93 NE12G35   29.90F VSB 1   WCI   5
MILWAUKEE/TIMM LGT SNOW  21  16  79 NE23G31   29.93S VSB 1   WCI   5
RACINE         SNOW      22  18  85 NE31G39   29.89F VSB 1/4 WCI   4
BURLINGTON     LGT SNOW  20  17  87 NE20G28   29.86S WCI   5
KENOSHA        HVY SNOW  21  19  92 NE20G35   29.85F VSB 1/4 WCI   6
FOND DU LAC    HAZE       9   4  80 N28G35    30.03S VSB 1/2 WCI -13
SHEBOYGAN      SNOW      18  13  80 NE29G37   29.99F VSB 1/2 WCI  -1
WEST BEND      LGT SNOW  19  14  79 NE22G31   29.94F WCI   3
JUNEAU         SNOW       9   6  84 N22G32    29.96F VSB 1/2 WCI -11
$$

LSZ147-162-012200-
LAKE SUPERIOR

STATION/POSITION TIME  TEMP    WIND        PRES    WAVE
                       AIR SEA DIR/SP/G            HT/PER
                 (UTC) (F)     (DEG/KT/KT) (MB)    (FT/S)
DEVILS ISLAND    2100    9      50/ 11/ 13 1028.5F
PORT WING        2040   11      40/ 14/ 19 1026.8F
SAXON HARBOR     2000   15      30/ 16/ 21 1025.1
$$

LMZ867-665-643>646-012200-
LAKE MICHIGAN

STATION/POSITION TIME  TEMP    WIND        PRES    WAVE
                       AIR SEA DIR/SP/G            HT/PER
                 (UTC) (F)     (DEG/KT/KT) (MB)    (FT/S)
NORTHPORT PIER   2000   10      30/ 17/ 21 1022.7F
SISTER BAY       2013    9      20/ 15/ 27   N/A
KEWAUNEE LAKESHO 2000   17      40/ 29/ 33 1018.6F
SHEBOYGAN LAKESH 2100   20      40/ 33/ 37 1016.8F
PORT WASHINGTON  2021   23      40/ 26     1015.9S
MILWAUKEE LAKESH 2000   23      40/ 31/ 36   N/A
KENOSHA   LAKESH 2100   23      30/ 30/ 38 1010.8F
$$

TC  - TEMPERATURE IN CELSIUS
VSB - VISIBILITY IN STATUTE MILES
WCI - WIND CHILL INDEX
HX  - HEAT INDEX



USA.gov is the U.S. government's official web portal to all federal, state and local government web resources and services.